Location: Peebles
(55.6412°N, 3.1714°W)
Time: 22:04:15
(UTC+01:00)

deb AGENA D - Pass Details

Date: 09 July 2022
Orbit: 951 x 1019 km, 99.8° (Epoch: 17 August)

Event Time Altitude Azimuth Distance (km) Brightness Sun altitude
Exits shadow 00:28:41 - 122° (ESE) 3,615 ? -11.3°
Reaches altitude 10° 00:31:00 10° 115° (ESE) 2,807 ? -11.3°
Maximum altitude 00:36:34 34° 53° (NE) 1,611 ? -11.5°
Drops below altitude 10° 00:42:07 10° 352° (N) 2,800 ? -11.6°
Sets 00:44:49 0° 343° (NNW) 3,746 ? -11.7°
